User: anonymous   Login
Location: Unspecified
(0.0000°N, 0.0000°E)
Time: 20:44:46
(UTC+00:00)
Language:

WSF-M - Orbit

View from above orbital plane
View from above orbital plane
View from above satellite
View from above satellite

Ground track
Ground track

The orbit is defined by the following mean orbital elements,

1 59481U          26145.47654439 +.00000000 +00000-0 +43860-4 0 00005
2 59481  98.7166 153.7305 0005417  39.7599 320.3974 14.20732342    05
Epoch (UTC): 25 May 2026 11:26:13
Eccentricity: 0.0005417
inclination: 98.7166°
perigee height: 819 km
apogee height: 827 km
right ascension of ascending node: 153.7305°
argument of perigee: 39.7599°
revolutions per day: 14.20732342
mean anomaly at epoch: 320.3974°

The dashed part of the orbit path shows where the satellite is in the earth's shadow,  

DLR